Content
SEND FEEDBACK

Daily
Averages
Monthly
Summary
Mexico

PLAYA DEL CARMEN, QUINTANA ROO


Home > North America > Mexico > Quintana Roo
Elevation: 30 feet     Latitude: 20 38N     Longitude: 087 04W

WEATHER
 
SELECT A DAY
Number of Records: 196,901;   Date Range: 2/21/06 - 9/20/14
 
SHARE

PRINT THIS DATA

[ ← Previous Day ]
WEATHER ALMANAC - NOVEMBER 9, 2013
[ Next Day → ]
[ °C ]   °F
Weather ElementAverageHighLow
Temperature72.4 °F84.2 °F (1:55 pm)62.6 °F (12:55 am)
Dewpoint56.5 °F62.6 °F (1:35 am) (7:00 pm)
Humidity65.6 %100 % (1:35 am)42 % (1:55 pm)
Barometer30.16 in30.20 in (9:15 am)30.13 in (2:15 am)
Wind Speed7.4 mph13.8 mph (9:35 am)
Wind Gust23 mph (10:35 am)
Weather ElementAverage
Visibility10 mi
Wind DirectionENE (56.7 °)

Weather ElementTotal
Precipitation---
Cooling Degree Days8.4 (Base 65)
Growing Degree Days23.4 (Base 50)
Averaged from 69 records on November 9, 2013
WEATHER CONDITIONS BREAKOUT
WIND DIRECTION BREAKOUT
WEATHER BY HOUR - NOVEMBER 9, 2013
[ °C ]   °F
Local TimeTemperatureDewpointHumidityBarometerVisibilityWind DirectionWind SpeedGust SpeedPrecipitationEventsConditions
12:35 AM64.4 °F59.0 °F83 %30.14 in10.0 miNNE (30°)6.9 mphClear
12:55 AM62.6 °F59.0 °F88 %30.14 in10.0 miNNE (30°)5.8 mphClear
1:15 AM62.6 °F60.8 °F94 %30.14 in10.0 miNE (40°)4.6 mphClear
1:35 AM62.6 °F62.6 °F100 %30.14 in10.0 miNNE (30°)4.6 mphClear
1:55 AM62.6 °F0.0 °F30.14 in10.0 miNE (40°)4.6 mphClear
2:15 AM62.6 °F0.0 °F30.13 in10.0 miNNE (30°)4.6 mphClear
2:35 AM62.6 °F0.0 °F30.14 in10.0 miNNE (20°)4.6 mphScattered Clouds
2:55 AM62.6 °F0.0 °F30.14 in10.0 miNNE (30°)5.8 mphOvercast
3:15 AM64.4 °F59.0 °F83 %30.14 in10.0 miNE (40°)6.9 mphOvercast
3:35 AM64.4 °F59.0 °F83 %30.13 in10.0 miNE (50°)9.2 mphOvercast
3:55 AM64.4 °F59.0 °F83 %30.13 in10.0 miNNE (30°)5.8 mphOvercast
4:15 AM64.4 °F59.0 °F83 %30.13 in10.0 miNNE (30°)5.8 mphMostly Cloudy
4:35 AM64.4 °F59.0 °F83 %30.13 in10.0 miNE (40°)5.8 mphMostly Cloudy
4:55 AM64.4 °F59.0 °F83 %30.13 in10.0 miNE (50°)4.6 mphScattered Clouds
5:15 AM64.4 °F59.0 °F83 %30.13 in10.0 miNE (50°)5.8 mphClear
5:35 AM64.4 °F59.0 °F83 %30.14 in10.0 miNE (40°)6.9 mphMostly Cloudy
5:55 AM64.4 °F59.0 °F83 %30.14 in10.0 miNE (40°)8.1 mphMostly Cloudy
6:15 AM64.4 °F59.0 °F83 %30.14 in10.0 miNE (50°)4.6 mphScattered Clouds
6:35 AM62.6 °F59.0 °F88 %30.15 in10.0 miNNE (30°)3.5 mphClear
6:55 AM62.6 °F59.0 °F88 %30.16 in10.0 miNNE (30°)4.6 mphClear
7:15 AM64.4 °F60.8 °F88 %30.16 in10.0 miNNE (30°)4.6 mphClear
7:35 AM64.4 °F60.8 °F88 %30.17 in10.0 miNE (50°)5.8 mphClear
7:55 AM68.0 °F60.8 °F78 %30.18 in10.0 miNE (50°)4.6 mphClear
8:15 AM69.8 °F60.8 °F73 %30.18 in10.0 miENE (60°)5.8 mphClear
8:35 AM71.6 °F60.8 °F69 %30.19 in10.0 miENE (60°)9.2 mphScattered Clouds
8:55 AM73.4 °F60.8 °F65 %30.19 in10.0 miENE (70°)10.4 mphMostly Cloudy
9:15 AM75.2 °F62.6 °F65 %30.20 in10.0 miENE (70°)10.4 mph17.3 mphScattered Clouds
9:35 AM77.0 °F62.6 °F61 %30.20 in10.0 miENE (70°)13.8 mph18.4 mphClear
9:55 AM77.0 °F62.6 °F61 %30.20 in10.0 miEast (80°)12.7 mph21.9 mphClear
10:15 AM78.8 °F60.8 °F54 %30.19 in10.0 miEast (90°)12.7 mph19.6 mphClear
10:35 AM78.8 °F60.8 °F54 %30.19 in10.0 miEast (80°)12.7 mph23.0 mphClear
10:55 AM80.6 °F62.6 °F54 %30.19 in10.0 miEast (100°)10.4 mphClear
11:15 AM78.8 °F60.8 °F54 %30.18 in10.0 miEast (80°)11.5 mph18.4 mphMostly Cloudy
11:35 AM82.4 °F62.6 °F51 %30.17 in10.0 miENE (70°)12.7 mph18.4 mphOvercast
11:55 AM80.6 °F60.8 °F51 %30.17 in10.0 miEast (90°)10.4 mphMostly Cloudy
12:15 PM82.4 °F62.6 °F51 %30.16 in10.0 miEast (80°)9.2 mphMostly Cloudy
12:35 PM80.6 °F60.8 °F51 %30.16 in10.0 miEast (90°)9.2 mph18.4 mphOvercast
12:55 PM80.6 °F60.8 °F51 %30.15 in10.0 miEast (80°)11.5 mph16.1 mphOvercast
1:15 PM80.6 °F60.8 °F51 %30.14 in10.0 miNE (50°)11.5 mphOvercast
1:35 PM82.4 °F60.8 °F48 %30.13 in10.0 miEast (90°)9.2 mphOvercast
1:55 PM84.2 °F59.0 °F42 %30.13 in10.0 miEast (80°)11.5 mph16.1 mphMostly Cloudy
2:15 PM82.4 °F59.0 °F45 %30.13 in10.0 miEast (90°)10.4 mph18.4 mphScattered Clouds
2:35 PM82.4 °F59.0 °F45 %30.13 in10.0 miEast (90°)10.4 mph16.1 mphScattered Clouds
2:55 PM82.4 °F57.2 °F42 %30.13 in10.0 miEast (90°)12.7 mph17.3 mphScattered Clouds
3:15 PM82.4 °F57.2 °F42 %30.13 in10.0 miEast (80°)8.1 mphScattered Clouds
3:35 PM82.4 °F59.0 °F45 %30.13 in10.0 miEast (90°)10.4 mphScattered Clouds
3:55 PM82.4 °F57.2 °F42 %30.13 in10.0 miENE (70°)11.5 mph16.1 mphScattered Clouds
4:15 PM82.4 °F57.2 °F42 %30.13 in10.0 miEast (80°)10.4 mphClear
4:35 PM80.6 °F59.0 °F48 %30.13 in10.0 miENE (60°)12.7 mph18.4 mphClear
4:55 PM78.8 °F59.0 °F51 %30.13 in10.0 miENE (60°)11.5 mphClear
5:15 PM78.8 °F59.0 °F51 %30.14 in10.0 miENE (60°)6.9 mphClear
5:35 PM77.0 °F59.0 °F54 %30.15 in10.0 miNE (50°)6.9 mphClear
5:55 PM75.2 °F60.8 °F61 %30.15 in10.0 miENE (60°)8.1 mphClear
6:15 PM75.2 °F60.8 °F61 %30.16 in10.0 miENE (60°)5.8 mphClear
6:35 PM75.2 °F60.8 °F61 %30.17 in10.0 miENE (70°)4.6 mphClear
6:55 PM73.4 °F60.8 °F65 %30.17 in10.0 miENE (60°)5.8 mphScattered Clouds
7:15 PM75.2 °F60.8 °F61 %30.17 in10.0 miEast (80°)5.8 mphMostly Cloudy
7:35 PM75.2 °F60.8 °F61 %30.17 in10.0 miEast (90°)10.4 mphOvercast
7:55 PM75.2 °F59.0 °F57 %30.17 in10.0 miENE (70°)5.8 mphOvercast
8:15 PM73.4 °F59.0 °F61 %30.18 in10.0 miENE (70°)4.6 mphOvercast
8:35 PM73.4 °F59.0 °F61 %30.18 in10.0 miNNE (30°)4.6 mphMostly Cloudy
9:35 PM69.8 °F60.8 °F73 %30.18 in10.0 miNE (40°)5.8 mphClear
9:55 PM69.8 °F59.0 °F68 %30.18 in10.0 miNE (40°)4.6 mphClear
10:15 PM69.8 °F59.0 °F68 %30.19 in10.0 miCalmClear
10:35 PM69.8 °F59.0 °F68 %30.19 in10.0 miNE (40°)3.5 mphClear
10:55 PM68.0 °F59.0 °F73 %30.19 in10.0 miCalmClear
11:15 PM68.0 °F59.0 °F73 %30.19 in10.0 miENE (60°)3.5 mphClear
11:35 PM68.0 °F60.8 °F78 %30.18 in10.0 miENE (70°)4.6 mphMostly Cloudy
11:55 PM68.0 °F60.8 °F78 %30.18 in10.0 miCalmOvercast
Hourly data recorded from KPCM, located miles away from Playa del Carmen, Quintana Roo







STORIES FROM OUR PARTNERS